WB2IFS-13 Weather Reports


time (UTC)temp
C
wind
direction
speed
KPH
gust
KPH
rain 1hr
cm
rain 24hr
cm
rain mn
cm
humidity
%
barometer
mb
20260505124458 18 148 3.2 11.3 0.00 0.00 0.00 62 1013.9
20260505122959 18 273 4.8 9.7 0.00 0.00 0.00 63 1013.8
20260505121459 17 54 3.2 11.3 0.00 0.00 0.00 64 1013.8
20260505120000 17 193 3.2 12.9 0.00 0.00 0.00 64 1013.7
20260505114500 17 139 3.2 9.7 0.00 0.00 0.00 65 1013.7
20260505112958 16 168 3.2 12.9 0.00 0.00 0.00 65 1013.4
20260505111459 16 98 3.2 9.7 0.00 0.00 0.00 65 1013.3
20260505101458 16 90 3.2 11.3 0.00 0.00 0.00 63 1012.9
20260505095959 16 85 3.2 9.7 0.00 0.00 0.00 63 1012.7
20260505094458 16 91 1.6 9.7 0.00 0.00 0.00 63 1012.5
20260505092959 16 174 3.2 6.4 0.00 0.00 0.00 62 1012.4
20260505091459 16 13 3.2 9.7 0.00 0.00 0.00 62 1012.4
20260505085959 16 91 1.6 11.3 0.00 0.00 0.00 62 1012.4
20260505084459 16 89 3.2 8.0 0.00 0.00 0.00 62 1012.3
20260505082958 16 108 3.2 8.0 0.00 0.00 0.00 63 1012.3
20260505081458 16 128 3.2 9.7 0.00 0.00 0.00 63 1012.2
20260505075959 16 142 1.6 8.0 0.00 0.00 0.00 63 1012.3
20260505074458 16 11 3.2 8.0 0.00 0.00 0.00 63 1012.3
20260505072959 16 255 1.6 6.4 0.00 0.00 0.00 64 1012.2
20260505071459 16 215 1.6 4.8 0.00 0.00 0.00 64 1012.2
20260505065958 16 188 3.2 11.3 0.00 0.00 0.00 63 1012.2
20260505064500 16 209 1.6 6.4 0.00 0.00 0.00 63 1012.2
20260505063000 16 281 0.0 3.2 0.00 0.00 0.00 64 1012.2
20260505061458 15 203 0.0 3.2 0.00 0.00 0.00 65 1012.2
20260505055958 15 154 0.0 1.6 0.00 0.00 0.00 67 1012.1
20260505054458 15 184 0.0 1.6 0.00 0.00 0.00 68 1012.1
20260505053002 15 163 0.0 0.0 0.00 0.00 0.00 67 1012.1
20260505051458 15 163 0.0 0.0 0.00 0.00 0.00 65 1012.3
20260505041458 17 149 0.0 3.2 0.00 0.00 0.00 58 1012.3
20260505040004 17 174 0.0 3.2 0.00 0.00 0.00 57 1012.2
20260505034501 17 150 0.0 3.2 0.00 0.00 0.00 56 1012.1
20260505033001 18 131 0.0 3.2 0.00 0.00 0.00 55 1012.2
20260505031501 18 128 0.0 4.8 0.00 0.00 0.00 54 1012.1
20260505030001 18 141 0.0 3.2 0.00 0.00 0.00 54 1012.0
20260505024500 18 146 0.0 4.8 0.00 0.00 0.00 54 1012.0
20260505022959 18 145 1.6 6.4 0.00 0.00 0.00 55 1012.0
20260505021500 17 174 0.0 6.4 0.00 0.00 0.00 56 1012.0
20260505020001 18 127 0.0 1.6 0.00 0.00 0.00 55 1012.1
20260505014500 18 131 0.0 3.2 0.00 0.00 0.00 54 1011.9
20260505012959 18 115 0.0 1.6 0.00 0.00 0.00 54 1011.8
20260505011500 18 151 0.0 0.0 0.00 0.00 0.00 53 1011.8
20260505010002 19 175 0.0 3.2 0.00 0.00 0.00 51 1011.6
20260505004459 20 117 0.0 1.6 0.00 0.00 0.00 49 1011.4
20260505002959 20 123 0.0 3.2 0.00 0.00 0.00 47 1011.3
20260505001459 21 129 0.0 3.2 0.00 0.00 0.00 46 1011.4
20260505000002 21 146 1.6 4.8 0.00 0.00 0.00 44 1011.4
20260504234501 22 163 3.2 8.0 0.00 0.00 0.00 42 1011.1
20260504233001 22 195 1.6 6.4 0.00 0.00 0.00 42 1011.1
20260504231500 22 93 3.2 16.1 0.00 0.00 0.00 41 1011.0
20260504230002 23 72 4.8 16.1 0.00 0.00 0.00 40 1011.1
20260504223000 23 124 4.8 17.7 0.00 0.00 0.00 39 1011.1
20260504221459 23 359 4.8 16.1 0.00 0.00 0.00 37 1011.1
20260504215959 24 122 6.4 16.1 0.00 0.00 0.00 36 1011.1
20260504212959 25 124 3.2 9.7 0.00 0.00 0.00 34 1011.1
20260504211459 25 190 3.2 9.7 0.00 0.00 0.00 34 1011.2
20260504210001 25 111 4.8 9.7 0.00 0.00 0.00 32 1011.2
20260504204504 25 48 4.8 9.7 0.00 0.00 0.00 33 1011.1
20260504203000 25 131 4.8 12.9 0.00 0.00 0.00 33 1011.2
20260504201500 25 207 4.8 14.5 0.00 0.00 0.00 34 1011.3
20260504200001 25 71 4.8 11.3 0.00 0.00 0.00 34 1011.5
20260504194500 25 186 4.8 14.5 0.00 0.00 0.00 34 1011.6
20260504192959 25 177 4.8 14.5 0.00 0.00 0.00 34 1011.9
20260504191459 25 341 3.2 14.5 0.00 0.00 0.00 33 1012.1
20260504190002 25 180 3.2 8.0 0.00 0.00 0.00 35 1012.2
20260504184501 24 346 4.8 12.9 0.00 0.00 0.00 34 1012.5
20260504183000 23 358 4.8 11.3 0.00 0.00 0.00 36 1012.7
20260504181500 23 14 4.8 11.3 0.00 0.00 0.00 36 1013.1
20260504180001 23 132 3.2 11.3 0.00 0.00 0.00 37 1013.4
20260504174459 23 200 3.2 11.3 0.00 0.00 0.00 37 1013.4
20260504173000 23 95 4.8 14.5 0.00 0.00 0.00 37 1013.8
20260504171458 23 14 3.2 9.7 0.00 0.00 0.00 36 1013.8